User: anonymous   Login
Location: Unspecified
(0.0000°N, 0.0000°E)
Time: 06:57:06
(UTC+01:00)
Language:

GPS 2-12 Rocket1 - Orbit

View from above orbital plane
View from above orbital plane
View from above satellite
View from above satellite

Ground track
Ground track

The orbit data is extracted from the following two-line orbital elements,

1 21891U 92009B   16044.12056959  .00001291  00000-0  10578-3 0  9990
2 21891  19.9976 333.7757 0047675 152.8234 207.4690 14.82529357293438
Epoch (UTC): 13 February 2016 02:53:37
Eccentricity: 0.0047675
inclination: 19.9976°
perigee height: 588 km
apogee height: 655 km
right ascension of ascending node: 333.7757°
argument of perigee: 152.8234°
revolutions per day: 14.82529357
mean anomaly at epoch: 207.4690°
orbit number at epoch: 29343

The dashed part of the orbit path shows where the satellite is in the earth's shadow,  

DLR